GFSSE_sfc_rhum_090.txt.gz
RH
50 44 89 90 90 92 89 88 88 89 88 88 87 86 85 85 85 85 83 82 79 77 72 71 73 71 70 71 71 76 78 80 79 77 72 70 72 72 72 76 72 58 79
51 48 90 91 91 92 91 88 89 89 88 87 86 85 85 85 86 83 82 81 79 75 70 69 69 66 69 70 75 76 76 77 77 76 74 68 67 71 74 77 76 64 76
57 54 60 92 90 90 89 88 89 88 87 87 84 85 85 85 85 84 82 80 77 74 69 68 71 71 74 76 78 78 79 76 76 74 69 38 51 71 72 75 76 72 72
53 58 52 94 89 85 87 88 88 87 87 85 85 85 85 84 84 82 80 78 76 73 67 67 72 72 76 78 79 77 76 75 76 73 45 50 53 70 70 70 70 69 68
48 64 57 91 90 89 89 89 87 87 86 84 85 85 85 84 82 80 79 77 75 72 66 66 69 75 79 83 81 80 76 75 73 50 41 51 47 61 66 64 67 68 69
51 58 84 96 92 89 88 87 89 86 86 86 86 85 84 82 81 80 79 77 75 73 69 70 73 77 82 83 82 79 77 74 72 34 40 49 47 62 65 68 67 66 65
53 60 83 94 94 91 83 77 86 88 87 87 86 84 82 82 82 80 79 78 76 76 74 72 76 78 82 83 80 79 76 70 32 31 33 40 50 63 65 65 66 66 66
70 68 82 85 91 92 85 90 91 89 88 87 85 84 83 83 82 81 80 80 81 81 79 77 78 78 79 79 79 80 76 65 36 33 35 39 63 64 64 66 66 66 66
70 79 79 73 81 88 90 89 95 90 89 88 85 85 84 84 82 83 83 84 85 83 82 80 81 81 79 79 80 81 78 74 33 32 34 40 66 63 65 65 65 65 65
73 76 76 70 86 83 89 97 98 94 92 88 86 86 87 86 86 83 83 85 86 84 83 82 83 82 81 82 82 82 77 70 32 32 33 46 65 64 64 64 64 65 65
83 79 83 80 88 84 84 94 98 99 90 89 87 89 87 65 65 65 70 86 87 85 83 83 83 83 83 83 82 80 77 33 33 31 37 72 65 64 64 65 65 65 65
74 83 74 75 81 87 82 93 94 97 92 84 78 75 67 70 59 49 74 89 86 83 83 83 84 84 64 41 48 68 32 37 34 34 42 75 66 63 64 64 64 64 64
58 82 82 80 75 91 88 92 95 98 96 93 86 69 74 69 60 54 61 65 63 68 49 55 58 40 40 36 38 36 39 37 34 34 57 75 66 63 64 64 63 62 62
60 68 87 85 82 88 96 97 95 98 96 95 90 78 77 71 58 53 47 50 55 46 50 47 42 44 44 39 39 42 39 34 33 36 56 76 72 64 63 62 62 61 60
67 79 92 92 88 83 92 95 98 97 98 94 93 85 76 65 57 48 46 44 44 43 46 46 44 47 45 41 40 40 40 39 39 34 43 78 76 67 62 62 61 59 58
74 95 95 97 89 82 92 91 96 97 98 94 94 88 74 62 56 49 48 42 44 44 43 44 46 43 39 38 40 40 40 39 39 40 39 52 78 73 66 61 58 57 55
79 93 94 94 92 92 91 93 94 94 96 96 91 82 72 60 57 58 45 42 38 40 49 45 46 39 37 35 39 39 38 42 39 43 40 42 54 80 74 69 60 58 56
81 92 92 91 92 89 90 98 96 97 95 95 92 79 76 70 57 56 52 50 44 45 43 42 42 40 36 34 37 35 36 40 42 44 42 42 43 42 71 76 71 62 59
85 92 92 90 86 89 95 98 96 94 95 94 93 78 73 72 65 58 54 59 58 50 42 40 42 40 37 33 33 34 36 37 43 38 44 49 49 44 42 75 80 78 70
86 88 90 87 91 91 95 96 96 95 95 95 93 70 70 65 68 62 61 65 57 55 48 41 47 39 36 35 26 32 38 35 34 36 41 39 43 48 45 46 52 54 76
88 90 87 85 87 89 94 96 95 96 94 97 92 73 65 63 66 64 60 64 62 53 55 53 49 53 49 44 39 38 39 42 42 35 35 32 34 42 47 45 42 41 46
87 91 87 76 79 75 84 92 88 92 94 93 92 81 60 65 59 58 55 55 54 56 60 63 61 53 49 46 44 44 48 42 37 37 34 36 41 34 39 44 47 49 64
83 83 87 84 80 73 76 84 92 94 94 92 93 90 74 56 52 53 53 51 56 52 61 66 59 56 52 51 50 47 52 52 44 38 43 37 42 48 44 54 51 63 60
74 75 69 83 80 77 80 70 84 80 77 70 74 74 79 62 57 49 51 54 60 59 59 58 54 56 55 52 51 47 52 52 51 64 43 46 43 45 63 61 52 54 54
67 73 72 75 83 81 73 74 78 75 60 65 72 72 77 79 75 62 54 59 58 55 55 57 59 62 54 55 55 54 55 51 54 56 53 54 45 41 45 47 48 47 50
67 67 69 68 77 83 80 79 79 77 73 71 72 80 77 68 63 71 46 53 55 56 58 61 64 68 66 62 59 57 54 53 52 55 59 56 63 50 44 58 47 42 51

GFSSE_sfc_rhum_093.txt.gz
RH
34 55 91 90 90 90 90 90 91 90 90 88 86 86 88 87 86 86 84 82 80 77 72 74 75 76 75 76 78 82 83 82 80 79 77 74 74 74 74 77 74 64 82
42 40 91 91 91 91 91 90 91 90 89 88 86 87 87 86 86 85 83 81 80 76 71 70 72 73 73 74 79 81 82 82 80 77 77 74 76 77 78 80 78 68 77
41 44 58 92 91 92 91 87 90 89 88 87 86 87 87 87 85 83 83 80 78 75 69 66 70 72 73 75 80 78 79 78 78 76 71 51 62 74 76 76 78 75 75
36 48 49 94 90 90 86 90 89 88 88 86 86 87 87 85 84 84 82 80 78 75 70 70 72 73 76 80 81 79 79 79 79 76 42 48 52 71 73 72 72 72 73
37 42 54 90 90 87 84 85 87 88 86 86 86 86 87 86 84 82 81 79 76 74 71 70 74 78 80 84 82 80 76 73 74 52 47 55 51 61 67 68 69 68 70
35 38 78 93 91 88 83 89 88 84 81 86 86 86 86 85 83 82 80 77 75 74 72 72 77 81 84 84 82 77 73 75 75 39 44 50 48 71 70 69 68 68 69
46 42 59 90 89 93 80 84 81 80 86 87 86 86 86 84 82 80 79 77 75 75 75 75 80 81 83 84 80 78 76 71 31 32 36 43 54 65 66 67 68 67 68
58 56 60 80 88 90 89 80 80 95 88 87 87 86 85 83 82 81 79 79 79 79 80 80 81 81 82 82 78 74 71 73 32 32 36 43 66 64 66 66 67 67 66
62 66 75 73 70 92 86 84 89 94 94 91 88 86 85 84 83 81 82 82 81 82 82 82 83 84 82 80 78 76 74 73 30 33 37 46 68 65 65 65 66 66 66
60 64 69 71 75 80 82 90 90 93 94 93 85 88 87 85 85 87 86 85 83 83 82 82 84 84 83 82 80 76 75 72 30 32 36 51 67 64 65 65 65 66 66
72 64 68 66 71 80 87 93 89 90 92 94 85 90 86 61 65 74 77 86 84 84 83 84 85 85 84 82 78 76 78 28 29 32 42 72 65 63 65 65 65 65 65
63 70 67 66 68 75 79 91 97 95 94 92 80 79 57 66 64 57 81 87 84 84 85 85 85 84 64 43 46 68 41 31 30 36 47 74 65 63 65 65 65 65 65
55 70 70 65 63 80 92 94 98 98 97 91 81 72 66 61 65 75 73 68 66 70 53 57 59 39 37 35 38 37 36 34 32 38 60 75 66 63 64 65 65 64 64
45 67 73 74 71 73 83 92 97 98 97 98 88 72 75 67 72 66 63 59 57 45 50 46 42 41 39 37 37 39 38 32 33 41 60 76 71 64 63 63 63 63 63
48 58 77 76 78 76 77 91 93 97 97 100 95 82 79 65 65 60 58 52 46 42 44 44 40 41 40 38 38 38 36 35 38 39 49 80 76 68 63 62 61 60 59
51 64 79 85 83 81 72 82 95 93 96 96 95 92 79 79 64 57 54 48 42 42 40 39 41 42 38 37 39 38 37 36 35 41 44 57 79 74 68 62 60 59 59
62 72 88 92 89 88 78 82 81 85 95 95 91 88 88 82 68 64 53 46 41 43 51 43 45 39 35 33 38 37 36 38 37 39 42 47 59 80 75 70 63 60 57
62 78 86 87 89 86 83 80 80 89 95 96 89 92 86 76 62 56 45 44 43 45 43 44 42 37 37 35 37 35 35 36 39 41 38 42 45 44 71 75 72 67 60
64 79 86 90 83 82 85 93 91 90 93 96 92 90 80 75 65 54 43 43 48 45 50 47 48 51 43 34 33 34 35 36 41 35 40 45 49 46 48 75 79 76 72
71 84 87 85 80 89 96 97 98 96 97 93 92 85 78 70 64 53 50 52 46 45 52 53 58 51 38 37 26 31 38 35 36 39 42 41 45 49 46 50 57 58 81
75 82 80 86 86 91 89 95 95 98 97 95 91 82 76 68 63 63 56 51 54 54 62 65 66 62 49 41 36 42 40 41 40 38 38 40 42 44 47 44 47 47 56
75 82 77 75 75 80 81 82 92 94 97 94 92 88 80 76 66 67 68 65 62 68 68 66 64 60 52 51 50 46 52 46 44 43 40 40 47 35 39 46 47 46 43
73 79 76 74 72 74 83 80 85 90 94 92 92 88 76 72 63 63 66 65 67 68 66 66 66 64 61 60 58 50 60 60 58 44 51 44 48 46 41 40 49 53 51
66 69 74 74 73 73 70 72 81 76 78 79 84 82 78 68 62 62 61 65 68 61 65 76 64 66 62 55 54 50 56 55 59 67 46 48 48 47 54 49 43 48 56
63 62 68 76 77 76 71 70 73 72 76 81 84 87 82 66 63 54 54 60 66 62 67 69 66 67 60 62 60 56 58 56 58 63 60 54 46 44 44 52 48 48 50
62 65 64 71 76 79 71 72 73 78 77 74 81 83 83 74 62 61 53 60 59 60 60 63 67 68 68 64 60 60 61 58 55 66 70 64 62 60 52 49 53 52 53

GFSSE_sfc_rhum_099.txt.gz
RH
86 91 94 91 89 90 88 90 94 93 91 91 91 89 88 87 86 84 82 80 80 80 76 79 82 77 79 82 85 86 85 84 82 79 76 74 76 78 80 84 83 76 83
82 86 94 92 89 89 89 90 93 93 90 91 91 90 89 87 86 84 82 81 80 77 75 78 77 76 81 82 86 86 86 86 85 84 82 80 78 78 80 82 83 80 82
80 82 87 94 90 89 88 88 91 91 89 90 91 90 89 87 85 84 82 81 81 79 73 72 75 77 80 84 84 84 84 82 83 83 80 72 71 77 79 83 83 80 78
78 82 87 95 92 90 89 89 89 89 89 90 90 90 88 87 86 85 84 84 82 77 72 74 75 78 81 83 83 83 83 81 80 78 72 72 71 76 77 78 76 75 76
62 75 82 94 95 93 91 89 89 90 89 90 90 89 88 87 86 85 84 83 80 77 73 71 76 78 83 85 85 84 82 76 75 66 69 66 67 73 77 75 71 72 73
62 79 91 93 94 94 92 90 90 90 90 90 89 88 88 86 86 85 84 81 79 77 74 70 77 81 83 84 85 85 83 76 69 70 70 70 68 71 73 73 74 70 68
82 93 93 94 92 92 93 91 84 81 91 84 84 86 84 88 85 84 83 81 79 77 76 79 82 83 84 82 81 78 74 72 60 69 76 67 70 73 71 69 69 69 68
76 94 95 92 92 92 90 91 90 91 87 92 94 95 89 84 84 85 84 83 81 83 84 85 83 83 83 81 78 75 71 68 61 70 72 62 72 70 71 68 69 69 69
74 85 96 93 88 90 94 92 92 93 90 92 92 93 95 95 88 85 84 85 86 87 87 86 84 84 83 79 76 70 78 70 66 66 65 62 68 65 66 68 66 67 69
78 86 87 90 90 95 97 95 94 93 93 92 90 89 90 95 94 85 87 88 88 88 87 85 87 85 81 77 71 80 71 71 66 70 75 66 65 65 66 67 68 68 68
84 89 84 84 80 98 96 92 92 92 92 89 88 88 89 92 95 85 84 88 88 88 88 87 86 84 80 74 76 76 71 61 67 70 73 74 66 65 66 67 68 68 68
92 92 88 85 89 95 91 95 96 96 93 90 90 92 92 92 91 84 88 88 88 88 88 87 85 82 72 72 69 70 58 64 68 70 72 75 66 65 66 67 67 67 67
86 93 88 85 92 95 97 99 100 100 97 94 95 95 93 97 94 90 90 88 89 88 87 85 78 69 67 70 65 68 60 66 70 68 75 77 69 65 67 67 67 67 67
89 93 91 89 93 95 98 99 99 99 99 98 97 95 94 97 94 86 87 90 89 87 87 80 78 67 63 62 62 67 61 67 72 78 80 80 73 66 66 66 66 66 66
91 94 93 92 92 94 97 99 99 99 98 98 98 94 98 94 90 83 88 86 80 78 74 76 76 58 61 60 63 59 64 70 72 75 87 82 78 70 65 65 66 66 65
88 96 94 91 94 94 97 99 99 99 98 97 97 95 96 92 87 82 81 73 72 67 61 74 66 72 67 65 61 62 65 69 71 78 84 83 81 76 71 65 65 65 65
92 94 96 96 93 93 94 97 99 99 98 99 95 92 97 91 80 77 70 70 65 60 63 74 71 71 70 63 64 64 65 69 72 75 81 89 83 82 78 72 68 64 64
92 95 96 91 94 91 92 97 99 99 99 100 96 93 98 88 78 71 62 71 65 62 64 72 69 73 72 68 72 68 68 67 72 74 75 79 87 77 82 80 76 71 66
94 97 97 95 95 93 91 96 96 98 99 99 97 96 92 84 75 70 65 74 65 68 76 63 72 64 74 72 65 70 68 75 70 65 73 75 81 83 88 84 82 80 76
94 95 92 96 95 94 96 96 98 99 98 99 98 96 95 86 73 69 76 84 73 69 76 71 71 74 73 68 47 62 73 71 69 73 71 70 76 76 78 79 84 80 83
95 93 93 94 96 98 98 99 99 98 98 97 98 94 98 92 79 76 79 80 87 70 67 65 77 65 73 71 71 69 63 61 66 70 74 74 73 72 76 74 76 75 74
93 89 90 91 94 92 92 96 97 96 96 93 94 94 93 92 81 70 76 74 81 74 70 71 70 76 74 70 68 73 73 66 62 63 75 72 76 73 72 68 72 72 73
89 89 87 86 92 91 93 96 98 98 99 98 97 98 95 87 78 67 72 79 83 79 72 72 69 66 72 76 62 72 88 79 79 71 70 72 70 79 76 70 75 71 72
83 82 82 84 89 90 93 92 93 96 96 95 95 94 95 88 84 75 74 73 77 78 80 71 71 77 76 74 73 66 84 86 89 90 80 75 75 63 68 76 69 74 72
81 79 79 84 88 88 84 87 88 92 93 94 94 94 94 92 89 81 79 80 82 81 86 85 82 80 82 84 83 87 86 89 90 92 93 86 80 73 76 68 66 73 70
86 82 81 83 87 87 83 81 82 89 92 95 94 92 91 91 91 87 81 85 84 85 91 92 88 85 84 90 87 92 87 88 90 94 95 92 90 86 70 72 72 63 63

GFSSE_sfc_rhum_105.txt.gz
RH
91 92 95 93 93 94 94 93 93 93 91 91 90 89 88 88 88 87 86 86 83 82 79 82 83 83 80 79 84 85 85 83 81 82 79 76 76 78 81 84 85 79 82
92 94 96 93 93 93 94 93 93 92 91 90 89 89 89 88 88 88 87 87 84 80 77 81 84 77 81 83 86 86 86 84 83 83 83 79 78 76 80 84 85 81 82
95 96 93 94 93 92 93 92 91 89 89 90 90 90 88 89 88 88 88 86 84 80 77 78 81 82 81 87 89 88 87 87 85 83 83 76 75 78 79 82 83 82 79
92 96 93 94 93 92 92 93 91 89 88 88 89 90 88 88 88 88 87 86 80 71 78 78 80 81 85 90 89 88 88 87 85 83 77 78 77 78 78 77 78 78 78
92 95 92 94 93 92 93 94 93 90 90 90 90 89 88 87 86 87 87 86 80 71 69 78 81 84 89 89 87 87 86 87 86 78 81 89 82 77 78 78 76 76 76
91 94 96 95 94 93 93 94 93 93 93 92 90 88 87 86 86 87 87 84 79 74 76 79 82 88 89 88 87 85 84 85 83 83 80 80 78 75 77 77 78 77 78
95 95 96 96 94 94 93 93 93 94 94 92 88 85 82 84 85 83 85 84 81 77 80 84 87 88 89 87 84 84 85 85 82 85 83 78 76 75 72 73 74 72 72
95 97 97 97 96 95 94 94 96 95 94 90 90 92 90 87 89 81 85 84 83 80 81 86 89 88 85 84 84 85 85 80 74 82 83 78 77 72 72 73 71 72 69
96 98 98 98 97 98 97 96 96 96 95 87 90 91 91 93 91 86 84 83 82 82 87 88 88 86 81 81 84 84 83 78 73 78 78 79 77 73 72 69 67 67 70
97 98 98 98 98 98 98 98 97 94 96 95 93 90 87 91 92 82 89 86 81 83 88 88 87 84 82 82 84 84 83 80 76 79 80 79 75 70 70 69 64 66 63
97 98 98 98 98 97 98 98 97 96 95 96 94 93 93 93 93 92 89 85 82 88 90 89 87 84 84 86 85 84 77 74 73 76 76 77 68 64 63 62 66 68 68
95 97 98 98 98 98 99 99 99 98 97 95 93 94 95 94 92 87 88 90 80 91 90 88 86 84 83 84 83 78 73 75 78 84 77 77 68 63 64 67 67 68 68
91 96 97 97 98 99 99 100 99 99 99 97 95 96 94 95 94 95 95 95 91 90 92 89 86 72 78 78 79 76 77 80 89 86 77 77 69 63 66 67 68 68 70
94 95 95 95 98 98 99 99 99 99 99 99 98 95 97 98 98 98 95 92 95 93 98 93 88 75 76 77 76 78 78 81 93 92 85 78 74 66 67 68 68 69 70
95 96 96 96 99 99 98 98 99 98 98 98 97 96 96 96 95 95 91 95 91 98 93 90 77 76 75 73 77 79 82 88 93 95 95 81 79 73 67 67 68 69 69
94 96 96 98 98 99 99 98 98 98 97 98 98 96 94 94 92 93 90 89 94 90 90 83 72 70 75 77 81 80 82 88 94 95 97 86 81 78 73 68 68 68 68
94 95 97 97 97 98 99 96 98 99 98 98 96 95 92 92 90 89 88 90 92 88 90 85 76 76 80 73 82 81 84 90 91 95 96 96 89 84 80 75 70 68 68
96 96 97 97 98 98 99 97 97 97 98 98 98 96 95 92 89 94 88 90 89 83 81 74 73 77 75 77 89 90 88 90 94 95 95 95 96 88 86 80 78 73 69
95 96 98 98 98 98 98 99 99 98 99 98 98 98 95 93 94 90 88 85 79 77 78 70 84 74 76 82 86 96 94 93 92 84 92 94 92 89 89 86 84 83 79
97 96 97 98 97 98 98 99 99 99 99 98 98 98 96 95 93 88 80 79 68 73 81 72 72 85 80 80 70 86 97 96 94 94 90 84 86 88 89 92 94 93 85
98 98 98 99 98 99 99 99 99 99 99 100 99 96 96 93 86 81 72 70 64 67 74 74 76 77 85 80 80 85 87 94 94 92 91 91 89 88 90 91 97 97 93
97 97 99 98 98 98 97 98 97 98 99 99 99 96 98 91 79 74 68 63 65 72 86 74 71 85 85 78 81 82 90 81 82 87 90 88 93 88 85 88 92 92 92
98 98 97 96 98 97 91 96 99 99 99 100 99 98 96 91 77 74 64 61 66 75 79 71 69 77 71 87 67 76 85 84 84 80 89 94 91 92 85 85 85 82 86
98 97 97 94 98 95 94 96 93 95 98 98 99 99 98 92 87 82 66 67 70 75 73 70 65 72 71 72 80 80 86 81 85 87 83 84 86 86 90 90 83 82 82
98 98 98 98 98 98 94 95 96 98 94 98 98 99 98 96 93 93 86 83 84 80 82 72 68 72 66 70 73 82 84 90 94 88 87 85 84 85 86 85 84 84 81
97 98 98 95 93 99 95 93 95 97 98 98 98 98 98 96 96 94 89 89 89 89 87 86 78 72 70 73 79 85 84 82 89 94 92 87 86 84 75 75 80 79 81